"Pseudo-MPEC" for S510125

Created 2016 Jun 28 12:35:09 UT using Find_Orb

Astrometry:
     S510125  C2016 06 26.15191 19 34 29.53 -06 13 03.2          12.2 R      Y00
     S510125  C2016 06 26.15283 19 34 41.93 -06 11 06.4          12.1 R      Y00
     S510125  C2016 06 26.15380 19 34 54.82 -06 09 05.9          12.1 R      Y00
     S510125  C2016 06 26.17560 19 39 33.75 -05 24 11.8          11.7 R      Y00
     S510125 tC2016 06 26.17586 19 39 37.00 -05 23 40.1          12.0 R      Y00
     S510125 tC2016 06 26.17619 19 39 41.03 -05 22 59.7          12.5 R      Y00
     S510125  C2016 06 26.17649 19 39 44.74 -05 22 22.9          11.8 R      Y00
     S510125 tC2016 06 26.17676 19 39 48.17 -05 21 49.1          12.4 R      Y00
     S510125 tC2016 06 26.17709 19 39 52.07 -05 21 11.1          12.3 R      Y00
     S510125  C2016 06 26.17743 19 39 56.24 -05 20 29.8          11.6 R      Y00
     S510125 tC2016 06 26.17770 19 39 59.63 -05 19 56.2          12.2 R      Y00
     S510125 tC2016 06 26.17802 19 40 03.54 -05 19 17.7          12.7 R      Y00
     S510125  C2016 06 26.17832 19 40 07.22 -05 18 42.3          11.6 R      Y00
     S510125  C2016 06 26.17857 19 40 10.46 -05 18 09.2          11.7 R      Y00
     S510125  C2016 06 26.17886 19 40 13.87 -05 17 35.0          11.7 R      Y00
     S510125 tC2016 06 26.21974 19 48 11.41 -03 57 10.9          12.1 R      Y00
     S510125 tC2016 06 26.22051 19 48 20.08 -03 55 42.3          12.2 R      Y00
     S510125 tC2016 06 26.22084 19 48 23.91 -03 55 03.2          12.6 R      Y00
     S510125 tC2016 06 26.22158 19 48 32.15 -03 53 38.6          12.2 R      Y00
     S510125 tC2016 06 26.22195 19 48 36.33 -03 52 55.6          12.2 R      Y00
     S510125 tC2016 06 26.22281 19 48 46.13 -03 51 15.4          12.7 R      Y00
     S510125 tC2016 06 26.22319 19 48 50.29 -03 50 32.2          12.2 R      Y00
     S510125 tC2016 06 26.22357 19 48 54.63 -03 49 47.7          12.2 R      Y00
     S510125 tC2016 06 26.22394 19 48 58.92 -03 49 03.8          12.6 R      Y00

Station data:
(Y00) SONEAR Observatory, Oliveira (S20.71513 W44.78496)  Brazil.   Observers
    C. Jacques, E. Pimentel, J. Barros.  Measurer C. Jacques.  0.28-m f/2.2
    astrograph + CCD.

Orbital elements:  S510125
   Perigee 2016 Jun 25.884702 +/- 0.00082 TT = 21:13:58 (JD 2457565.384702)
Epoch 2016 Jun 26.0 TT = JDT 2457565.5                        Find_Orb
M  46.126259 +/- 0.22               (J2000 equatorial)
n 400.062178490 +/- 1.47            Peri.  174.325728 +/- 0.046
a 39371.79143 +/- 96.4              Node   311.122727 +/- 0.030
e   0.80864330 +/- 0.000674         Incl.   23.116567 +/- 0.010
P1295.77m/0.900d           H 28.4   G  0.15   U 13.0  
q 7534.056008 +/- 43.9    Q 71209.52686 +/- 151
From 24 observations 2016 June 26 (1.7 hr); mean residual 1".114
Residuals in arcseconds: 
160626 Y00 1.27- .192-    160626 Y00 .941- .749-    160626 Y00 2.09- 1.33-    
160626 Y00 .502+ .693+    160626 Y00 1.13- .692-    160626 Y00 .271- .287-    
160626 Y00 .303+ .828-    160626 Y00 .062- .170+    160626 Y00 1.32- .973-    
160626 Y00 .084- .479-    160626 Y00 .358- .115-    160626 Y00 .904- .593-    
160626 Y00 .477+ .384-    160626 Y00 .372- 1.06-    160626 Y00 1.44+ .603+    
160626 Y00 .179- .083-    160626 Y00 2.24+ 1.76+    160626 Y00 .018- .083+    
160626 Y00 .033- .280+    160626 Y00 .106+ .856+    160626 Y00 1.24+ .879+    
160626 Y00 1.50+ 1.30+    160626 Y00 2.24- 1.10-    160626 Y00 3.46+ 2.24+    

Ephemerides (geocentric):
Date (UTC) HH   RA              Dec         delta   r     elong  mag " sig PA
---- -- -- --  ------------   ------------  ------ ------ -----  --- ---- ---
2016 06 28 13  00 32 30.468   +19 42 56.08   20869 1.0166  81.9 12.7 303'  78
2016 06 28 14  08 18 18.358   +02 39 27.43    7544 1.0166  33.2 14??  34d 113
2016 06 28 15  16 08 52.245   -21 37 49.55   20697 1.0168 147.2 10.5 266'  82
2016 06 28 16  17 38 58.742   -17 02 44.64   33106 1.0169 166.3 Sha  6528  74
2016 06 28 17  18 21 13.511   -13 53 02.98   42682 1.0169 170.3 11.3 3973  71
2016 06 28 18  18 48 28.111   -11 32 43.78   50297 1.0170 167.6 11.8 2869  70
2016 06 28 19  19 08 48.359   -09 40 00.54   56409 1.0170 163.8 12.2 2281  69
2016 06 28 20  19 25 20.394   -08 04 02.93   61282 1.0170 160.1 12.5 1933  68
2016 06 28 21  19 39 34.249   -06 38 48.88   65081 1.0170 156.8 12.7 1717  68
2016 06 28 22  19 52 20.697   -05 20 34.05   67913 1.0171 153.7 12.9 1583  68
2016 06 28 23  20 04 12.011   -04 06 45.26   69848 1.0171 150.7 13.0 1507  67
2016 06 29 00  20 15 31.078   -02 55 27.34   70930 1.0171 147.9 13.1 1476  67
2016 06 29 01  20 26 36.060   -01 45 04.42   71180 1.0170 145.0 13.2 1485  67
2016 06 29 02  20 37 43.245   -00 34 07.45   70606 1.0170 142.2 13.3 1535  67
2016 06 29 03  20 49 09.257   +00 38 56.28   69193 1.0170 139.2 13.3 1631  67
2016 06 29 04  21 01 13.385   +01 55 54.62   66913 1.0170 136.1 13.3 1786  67
2016 06 29 05  21 14 20.872   +03 19 06.67   63712 1.0169 132.6 13.3 2024  68
2016 06 29 06  21 29 08.674   +04 51 49.98   59507 1.0169 128.8 13.3 2393  68
2016 06 29 07  21 46 37.369   +06 39 13.31   54173 1.0169 124.2 13.2 2990  68
2016 06 29 08  22 08 40.139   +08 50 13.27   47511 1.0168 118.5 13.1 4044  69
2016 06 29 09  22 39 29.736   +11 42 32.93   39199 1.0168 110.6 12.9 6228  70
2016 06 29 10  23 31 42.930   +15 57 33.28   28651 1.0167  97.5 12.7 207'  73
2016 06 29 11  01 56 47.607   +22 39 10.30   14812 1.0166  63.2 13.0 914'  86
2016 06 29 12  13 27 32.413   -21 57 37.53   11612 1.0167 110.0 10.3 985'  97
2016 06 29 13  16 56 46.462   -19 32 45.51   26132 1.0168 156.9 10.7 222'  77
2016 06 29 14  17 59 10.229   -15 34 14.11   37253 1.0169 168.6 Sha  6810  73
2016 06 29 15  18 33 41.358   -12 47 51.61   45962 1.0170 169.6 11.5 4527  71
2016 06 29 16  18 57 34.381   -10 40 16.40   52929 1.0170 166.4 11.9 3431  69
2016 06 29 17  19 16 07.005   -08 55 08.48   58515 1.0170 162.7 12.3 2814  69
2016 06 29 18  19 31 34.923   -07 23 59.36   62939 1.0171 159.3 12.5 2439  68
2016 06 29 19  19 45 08.400   -06 01 53.21   66338 1.0171 156.1 12.8 2203  68
2016 06 29 20  19 57 29.124   -04 45 39.41   68801 1.0171 153.1 12.9 2058  67
2016 06 29 21  20 09 04.805   -03 33 02.75   70388 1.0171 150.2 13.1 1980  67
2016 06 29 22  20 20 15.986   -02 22 17.51   71132 1.0171 147.3 13.2 1958  67
2016 06 29 23  20 31 19.779   -01 11 51.83   71050 1.0171 144.5 13.2 1986  67
2016 06 30 00  20 42 32.346   -00 00 16.42   70140 1.0171 141.6 13.3 2068  67
2016 06 30 01  20 54 11.075   +01 14 05.92   68382 1.0170 138.6 13.3 2215  67
2016 06 30 02  21 06 37.170   +02 33 13.10   65738 1.0170 135.4 13.3 2446  67
2016 06 30 03  21 20 19.691   +03 59 43.28   62144 1.0170 131.8 13.3 2803  68
2016 06 30 04  21 36 03.130   +05 37 29.71   57501 1.0169 127.7 13.3 3364  68
2016 06 30 05  21 55 04.121   +07 32 51.97   51660 1.0169 122.8 13.2 4301  68
2016 06 30 06  22 19 55.280   +09 57 22.41   44382 1.0168 116.4 13.0 6053  69
2016 06 30 07  22 56 52.552   +13 15 20.94   35260 1.0168 106.9 12.8 168'  71
2016 06 30 08  00 08 35.746   +18 26 16.90   23531 1.0167  89.3 12.6 416'  76
2016 06 30 09  05 22 01.801   +18 05 48.02    8826 1.0166  18.5 18??  54d 105
2016 06 30 10  15 35 52.649   -22 30 05.12   17877 1.0168 138.1 10.4 543'  85
2016 06 30 11  17 28 11.267   -17 41 17.88   30978 1.0169 162.7 10.9 198'  75
2016 06 30 12  18 15 21.006   -14 16 42.46   41014 1.0170 169.6 11.3 6984  72
2016 06 30 13  18 44 31.892   -11 48 30.20   48963 1.0170 168.6 11.7 4959  70
2016 06 30 14  19 05 50.986   -09 51 11.97   55339 1.0171 165.3 12.1 3907  69